| time (UTC) | temp F | wind direction | speed MPH | gust MPH | rain 1hr in | rain 24hr in | rain mn in | humidity % | barometer mb |
| 20260905144044 | 70 | 10 | 2.0 | 7.0 | 0.00 | 0.00 | 0.00 | 99 | 1015.9 |
| 20260905143020 | 69 | 359 | 2.0 | 7.0 | 0.00 | 0.00 | 0.00 | 99 | 1015.9 |
| 20260905142017 | 70 | 345 | 4.0 | 13.0 | 0.00 | 0.01 | 0.00 | 99 | 1015.9 |
| 20260905141035 | 70 | 348 | 4.0 | 11.0 | 0.00 | 0.01 | 0.00 | 99 | 1015.9 |
| 20260905140032 | 70 | 354 | 3.0 | 9.0 | 0.00 | 0.01 | 0.00 | 99 | 1016.0 |
| 20260905135027 | 69 | 342 | 4.0 | 11.0 | 0.00 | 0.01 | 0.00 | 99 | 1016.2 |
| 20260905134024 | 69 | 349 | 4.0 | 11.0 | 0.00 | 0.01 | 0.00 | 99 | 1016.3 |
| 20260905133021 | 69 | 352 | 4.0 | 9.0 | 0.00 | 0.02 | 0.00 | 99 | 1016.1 |
| 20260905132018 | 69 | 345 | 4.0 | 10.0 | 0.00 | 0.07 | 0.00 | 99 | 1015.7 |
| 20260905131035 | 69 | 345 | 4.0 | 10.0 | 0.00 | 0.10 | 0.00 | 99 | 1015.6 |
| 20260905130031 | 69 | 344 | 4.0 | 9.0 | 0.00 | 0.17 | 0.00 | 99 | 1015.6 |
| 20260905125028 | 69 | 353 | 4.0 | 10.0 | 0.00 | 0.17 | 0.00 | 99 | 1015.5 |
| 20260905124025 | 69 | 346 | 3.0 | 11.0 | 0.00 | 0.18 | 0.00 | 99 | 1015.4 |
| 20260905123042 | 69 | 347 | 3.0 | 10.0 | 0.00 | 0.18 | 0.00 | 99 | 1015.3 |
| 20260905122018 | 69 | 348 | 3.0 | 10.0 | 0.00 | 0.18 | 0.00 | 99 | 1015.2 |
| 20260905121056 | 69 | 348 | 4.0 | 8.0 | 0.00 | 0.23 | 0.00 | 99 | 1015.2 |
| 20260905120032 | 68 | 335 | 4.0 | 10.0 | 0.00 | 0.29 | 0.00 | 99 | 1015.1 |
| 20260905115029 | 68 | 350 | 3.0 | 13.0 | 0.00 | 0.30 | 0.00 | 99 | 1014.9 |
| 20260905114025 | 68 | 351 | 3.0 | 10.0 | 0.00 | 0.31 | 0.00 | 99 | 1014.9 |
| 20260905113023 | 68 | 352 | 4.0 | 10.0 | 0.00 | 0.35 | 0.00 | 99 | 1014.7 |
| 20260905112020 | 68 | 341 | 3.0 | 10.0 | 0.00 | 0.48 | 0.00 | 99 | 1014.6 |
| 20260905111035 | 68 | 347 | 4.0 | 13.0 | 0.00 | 0.63 | 0.00 | 99 | 1014.7 |
| 20260905110052 | 68 | 347 | 4.0 | 14.0 | 0.00 | 0.79 | 0.00 | 99 | 1014.5 |
| 20260905105030 | 68 | 353 | 4.0 | 8.0 | 0.00 | 0.96 | 0.00 | 99 | 1014.6 |
| 20260905104025 | 68 | 345 | 4.0 | 10.0 | 0.00 | 1.02 | 0.00 | 99 | 1014.5 |
| 20260905103022 | 68 | 353 | 3.0 | 8.0 | 0.00 | 1.25 | 0.00 | 99 | 1014.6 |
| 20260905102019 | 68 | 2 | 3.0 | 8.0 | 0.00 | 1.49 | 0.00 | 99 | 1014.7 |
| 20260905101016 | 68 | 357 | 4.0 | 9.0 | 0.00 | 1.67 | 0.00 | 99 | 1014.6 |
| 20260905100032 | 68 | 350 | 4.0 | 9.0 | 0.00 | 1.76 | 0.00 | 99 | 1014.6 |
| 20260905095029 | 68 | 345 | 4.0 | 10.0 | 0.00 | 2.17 | 0.00 | 99 | 1014.5 |
| 20260905094025 | 68 | 344 | 3.0 | 9.0 | 0.00 | 2.22 | 0.00 | 99 | 1014.5 |
| 20260905093022 | 68 | 345 | 4.0 | 11.0 | 0.00 | 2.23 | 0.00 | 99 | 1014.4 |
| 20260905092019 | 68 | 343 | 4.0 | 10.0 | 0.00 | 2.24 | 0.00 | 99 | 1014.3 |
| 20260905091016 | 68 | 354 | 4.0 | 9.0 | 0.00 | 2.33 | 0.00 | 99 | 1014.2 |
| 20260905090034 | 68 | 354 | 3.0 | 8.0 | 0.00 | 2.39 | 0.00 | 99 | 1014.1 |
| 20260905085051 | 68 | 352 | 4.0 | 8.0 | 0.00 | 2.42 | 0.00 | 99 | 1014.1 |
| 20260905084026 | 69 | 349 | 4.0 | 9.0 | 0.00 | 2.46 | 0.00 | 99 | 1014.0 |
| 20260905083023 | 69 | 1 | 2.0 | 7.0 | 0.00 | 2.58 | 0.00 | 99 | 1014.0 |
| 20260905082021 | 69 | 353 | 3.0 | 8.0 | 0.00 | 3.25 | 0.00 | 99 | 1014.1 |
| 20260905081017 | 69 | 358 | 3.0 | 7.0 | 0.00 | 3.36 | 0.00 | 99 | 1014.2 |
| 20260905080033 | 69 | 352 | 3.0 | 8.0 | 0.00 | 3.36 | 0.00 | 99 | 1014.1 |
| 20260905075031 | 69 | 344 | 3.0 | 8.0 | 0.00 | 3.40 | 0.00 | 99 | 1014.2 |
| 20260905074027 | 69 | 345 | 3.0 | 7.0 | 0.00 | 3.44 | 0.00 | 99 | 1014.2 |
| 20260905073023 | 69 | 350 | 3.0 | 8.0 | 0.00 | 3.48 | 0.00 | 99 | 1014.3 |
| 20260905072019 | 69 | 348 | 3.0 | 7.0 | 0.00 | 3.54 | 0.00 | 99 | 1014.2 |
| 20260905071017 | 69 | 348 | 2.0 | 6.0 | 0.00 | 3.55 | 0.00 | 99 | 1014.2 |
| 20260905070033 | 69 | 349 | 3.0 | 7.0 | 0.00 | 3.56 | 0.00 | 99 | 1014.2 |
| 20260905065031 | 69 | 351 | 2.0 | 7.0 | 0.00 | 3.57 | 0.00 | 99 | 1014.3 |
| 20260905064046 | 70 | 3 | 2.0 | 7.0 | 0.00 | 3.57 | 0.00 | 99 | 1014.5 |
| 20260905063023 | 70 | 347 | 2.0 | 4.0 | 0.00 | 3.57 | 0.00 | 99 | 1014.5 |
| 20260905062100 | 70 | 341 | 1.0 | 3.0 | 0.00 | 3.58 | 0.00 | 99 | 1014.5 |
| 20260905061016 | 70 | 346 | 1.0 | 2.0 | 0.00 | 3.59 | 0.00 | 99 | 1014.5 |
| 20260905060033 | 69 | 337 | 1.0 | 3.0 | 0.00 | 3.59 | 0.00 | 99 | 1014.5 |
| 20260905055031 | 69 | 338 | 1.0 | 3.0 | 0.00 | 3.59 | 0.00 | 99 | 1014.5 |
| 20260905054027 | 69 | 353 | 2.0 | 4.0 | 0.00 | 3.59 | 0.00 | 99 | 1014.5 |
| 20260905053024 | 69 | 349 | 1.0 | 6.0 | 0.00 | 3.60 | 0.00 | 99 | 1014.2 |
| 20260905052020 | 70 | 355 | 1.0 | 3.0 | 0.00 | 3.62 | 0.00 | 99 | 1014.1 |
| 20260905051017 | 70 | 343 | 1.0 | 2.0 | 0.00 | 3.62 | 0.00 | 99 | 1014.2 |
| 20260905050035 | 70 | 337 | 1.0 | 2.0 | 0.00 | 3.62 | 0.00 | 99 | 1014.3 |
| 20260905045031 | 69 | 343 | 0.0 | 1.0 | 0.00 | 3.62 | 3.62 | 99 | 1014.4 |
| 20260905044027 | 69 | 346 | 1.0 | 1.0 | 0.00 | 3.62 | 3.62 | 99 | 1014.3 |
| 20260905043024 | 69 | 358 | 1.0 | 4.0 | 0.00 | 3.62 | 3.62 | 99 | 1014.3 |
| 20260905042021 | 70 | 5 | 1.0 | 3.0 | 0.00 | 3.62 | 3.62 | 99 | 1014.4 |
| 20260905041017 | 69 | 356 | 1.0 | 3.0 | 0.00 | 3.63 | 3.62 | 99 | 1014.5 |
| 20260905040034 | 69 | 355 | 2.0 | 3.0 | 0.00 | 3.63 | 3.62 | 99 | 1014.5 |
| 20260905035031 | 69 | 350 | 2.0 | 4.0 | 0.00 | 3.63 | 3.62 | 99 | 1014.3 |
| 20260905034028 | 69 | 15 | 1.0 | 3.0 | 0.00 | 3.63 | 3.62 | 99 | 1014.2 |
| 20260905033046 | 70 | 8 | 1.0 | 6.0 | 0.00 | 3.63 | 3.62 | 99 | 1014.4 |
| 20260905032143 | 71 | 16 | 1.0 | 3.0 | 0.00 | 3.63 | 3.62 | 99 | 1014.3 |
| 20260905031018 | 71 | 202 | 1.0 | 3.0 | 0.00 | 3.63 | 3.62 | 99 | 1014.0 |
| 20260905030055 | 70 | 181 | 0.0 | 2.0 | 0.00 | 3.63 | 3.62 | 99 | 1014.0 |
| 20260905025032 | 70 | 64 | 0.0 | 1.0 | 0.00 | 3.63 | 3.62 | 99 | 1014.1 |
| 20260905024049 | 70 | 0.0 | 0.0 | 0.00 | 3.63 | 3.62 | 99 | 1014.0 | |
| 20260905023046 | 69 | 0.0 | 0.0 | 0.00 | 3.63 | 3.62 | 99 | 1014.2 | |
| 20260905022023 | 69 | 7 | 0.0 | 1.0 | 0.00 | 3.63 | 3.62 | 99 | 1014.3 |
| 20260905021019 | 69 | 13 | 0.0 | 1.0 | 0.00 | 3.63 | 3.62 | 99 | 1014.1 |
| 20260905020016 | 69 | 348 | 0.0 | 1.0 | 0.00 | 3.63 | 3.62 | 99 | 1014.1 |
| 20260905015033 | 69 | 349 | 0.0 | 1.0 | 0.00 | 3.63 | 3.62 | 99 | 1014.2 |
| 20260905014030 | 69 | 334 | 1.0 | 2.0 | 0.00 | 3.63 | 3.62 | 99 | 1014.3 |
| 20260905013028 | 68 | 341 | 1.0 | 2.0 | 0.00 | 3.63 | 3.62 | 99 | 1014.0 |
| 20260905012024 | 68 | 352 | 1.0 | 3.0 | 0.00 | 3.63 | 3.62 | 99 | 1014.1 |
| 20260905011020 | 69 | 355 | 2.0 | 6.0 | 0.00 | 3.63 | 3.62 | 99 | 1014.1 |
| 20260905010017 | 69 | 6 | 2.0 | 4.0 | 0.00 | 3.63 | 3.62 | 99 | 1014.2 |
| 20260905005034 | 69 | 7 | 1.0 | 2.0 | 0.00 | 3.63 | 3.62 | 98 | 1014.1 |
| 20260905004030 | 69 | 353 | 1.0 | 2.0 | 0.00 | 3.63 | 3.62 | 97 | 1013.8 |
| 20260905003027 | 70 | 36 | 0.0 | 1.0 | 0.00 | 3.63 | 3.62 | 95 | 1013.8 |
| 20260905002044 | 71 | 337 | 0.0 | 2.0 | 0.00 | 3.63 | 3.62 | 94 | 1013.8 |
| 20260905001041 | 72 | 356 | 1.0 | 3.0 | 0.00 | 3.63 | 3.62 | 91 | 1013.8 |
| 20260905000018 | 74 | 57 | 1.0 | 3.0 | 0.00 | 3.63 | 3.62 | 91 | 1013.5 |
| 20260904235034 | 74 | 0.0 | 0.0 | 0.00 | 3.63 | 3.62 | 93 | 1013.5 | |
| 20260904234032 | 73 | 156 | 0.0 | 1.0 | 0.00 | 3.63 | 3.62 | 93 | 1013.5 |
| 20260904233028 | 73 | 138 | 0.0 | 1.0 | 0.00 | 3.63 | 3.62 | 92 | 1013.5 |
| 20260904232025 | 74 | 136 | 1.0 | 1.0 | 0.00 | 3.63 | 3.62 | 92 | 1013.5 |
| 20260904231122 | 74 | 138 | 0.0 | 3.0 | 0.00 | 3.63 | 3.62 | 91 | 1013.5 |
| 20260904230018 | 74 | 147 | 1.0 | 3.0 | 0.00 | 3.63 | 3.62 | 90 | 1013.4 |
| 20260904225115 | 75 | 141 | 2.0 | 3.0 | 0.00 | 3.63 | 3.62 | 90 | 1013.3 |
| 20260904224033 | 75 | 164 | 1.0 | 3.0 | 0.00 | 3.63 | 3.62 | 88 | 1013.2 |
| 20260904223029 | 75 | 137 | 1.0 | 2.0 | 0.00 | 3.63 | 3.62 | 87 | 1013.1 |
| 20260904222027 | 76 | 137 | 1.0 | 2.0 | 0.00 | 3.63 | 3.62 | 87 | 1013.2 |
| 20260904221022 | 76 | 145 | 1.0 | 3.0 | 0.00 | 3.63 | 3.62 | 87 | 1013.2 |
| 20260904220019 | 75 | 136 | 1.0 | 3.0 | 0.00 | 3.63 | 3.62 | 88 | 1013.4 |
| 20260904215016 | 75 | 137 | 1.0 | 4.0 | 0.00 | 3.63 | 3.62 | 88 | 1013.2 |
| 20260904214033 | 75 | 151 | 2.0 | 6.0 | 0.00 | 3.63 | 3.62 | 86 | 1013.2 |
| 20260904213050 | 76 | 154 | 1.0 | 3.0 | 0.00 | 3.63 | 3.62 | 85 | 1013.0 |
| 20260904212026 | 76 | 144 | 1.0 | 4.0 | 0.00 | 3.63 | 3.62 | 85 | 1012.9 |
| 20260904211024 | 76 | 149 | 1.0 | 4.0 | 0.00 | 3.63 | 3.62 | 83 | 1012.8 |
| 20260904210020 | 77 | 138 | 2.0 | 4.0 | 0.00 | 3.63 | 3.62 | 82 | 1012.8 |
| 20260904205017 | 77 | 126 | 2.0 | 7.0 | 0.00 | 3.63 | 3.62 | 81 | 1012.9 |
| 20260904204033 | 77 | 139 | 2.0 | 6.0 | 0.00 | 3.63 | 3.62 | 81 | 1012.9 |
| 20260904203031 | 77 | 124 | 2.0 | 6.0 | 0.00 | 3.63 | 3.62 | 81 | 1013.0 |
| 20260904202046 | 77 | 123 | 2.0 | 6.0 | 0.00 | 3.63 | 3.62 | 81 | 1013.0 |
| 20260904201023 | 76 | 114 | 2.0 | 6.0 | 0.00 | 3.63 | 3.62 | 81 | 1013.1 |
| 20260904200019 | 76 | 107 | 3.0 | 7.0 | 0.00 | 3.63 | 3.62 | 81 | 1013.2 |
| 20260904195016 | 76 | 133 | 2.0 | 4.0 | 0.00 | 3.63 | 3.62 | 81 | 1013.2 |
| 20260904194034 | 77 | 107 | 2.0 | 6.0 | 0.00 | 3.63 | 3.62 | 80 | 1013.4 |
| 20260904193029 | 77 | 119 | 2.0 | 4.0 | 0.00 | 3.63 | 3.62 | 81 | 1013.4 |
| 20260904192026 | 76 | 147 | 2.0 | 4.0 | 0.00 | 3.63 | 3.62 | 82 | 1013.5 |
| 20260904191103 | 75 | 142 | 2.0 | 7.0 | 0.00 | 3.63 | 3.62 | 83 | 1013.5 |
| 20260904190019 | 73 | 128 | 2.0 | 7.0 | 0.00 | 3.63 | 3.62 | 85 | 1013.8 |
| 20260904185016 | 73 | 123 | 2.0 | 6.0 | 0.00 | 3.63 | 3.62 | 84 | 1013.7 |
| 20260904184033 | 75 | 121 | 2.0 | 8.0 | 0.00 | 3.63 | 3.62 | 83 | 1013.5 |
| 20260904183029 | 74 | 145 | 2.0 | 6.0 | 0.00 | 3.63 | 3.62 | 84 | 1013.5 |
| 20260904182026 | 74 | 133 | 3.0 | 7.0 | 0.00 | 3.63 | 3.62 | 83 | 1013.5 |
| 20260904181023 | 73 | 134 | 2.0 | 7.0 | 0.00 | 3.63 | 3.62 | 86 | 1013.4 |
| 20260904180020 | 71 | 134 | 2.0 | 8.0 | 0.00 | 3.63 | 3.62 | 86 | 1013.4 |
| 20260904175016 | 73 | 133 | 2.0 | 4.0 | 0.00 | 3.63 | 3.62 | 84 | 1013.2 |
| 20260904174033 | 73 | 126 | 2.0 | 4.0 | 0.00 | 3.63 | 3.62 | 86 | 1013.4 |
| 20260904173030 | 72 | 127 | 2.0 | 4.0 | 0.00 | 3.63 | 3.62 | 88 | 1013.5 |
| 20260904172027 | 71 | 114 | 1.0 | 4.0 | 0.00 | 3.63 | 3.62 | 88 | 1013.5 |
| 20260904171024 | 72 | 105 | 3.0 | 7.0 | 0.00 | 3.63 | 3.62 | 86 | 1013.5 |
| 20260904170020 | 73 | 142 | 2.0 | 4.0 | 0.00 | 3.63 | 3.62 | 93 | 1013.5 |
| 20260904165058 | 72 | 183 | 2.0 | 9.0 | 0.00 | 3.63 | 3.62 | 95 | 1013.6 |
| 20260904164033 | 71 | 208 | 1.0 | 6.0 | 0.00 | 3.63 | 3.62 | 99 | 1013.6 |
| 20260904163031 | 70 | 221 | 0.0 | 2.0 | 0.00 | 3.63 | 3.62 | 99 | 1013.5 |
| 20260904162047 | 69 | 171 | 1.0 | 4.0 | 0.00 | 3.63 | 3.62 | 99 | 1013.4 |
| 20260904161023 | 69 | 190 | 2.0 | 9.0 | 0.00 | 3.63 | 3.62 | 99 | 1013.5 |
| 20260904160021 | 69 | 212 | 2.0 | 10.0 | 0.00 | 3.63 | 3.62 | 99 | 1013.6 |
| 20260904155017 | 69 | 229 | 3.0 | 9.0 | 0.00 | 3.63 | 3.62 | 99 | 1013.4 |
| 20260904154033 | 68 | 229 | 2.0 | 9.0 | 0.00 | 3.63 | 3.62 | 99 | 1013.3 |
| 20260904153030 | 68 | 243 | 3.0 | 8.0 | 0.00 | 3.63 | 3.62 | 99 | 1013.5 |
| 20260904152027 | 68 | 217 | 2.0 | 8.0 | 0.01 | 3.63 | 3.62 | 99 | 1013.4 |
| 20260904151025 | 68 | 205 | 2.0 | 8.0 | 0.01 | 3.63 | 3.62 | 99 | 1013.4 |
| 20260904150020 | 67 | 203 | 2.0 | 8.0 | 0.01 | 3.63 | 3.62 | 99 | 1013.5 |
| 20260904145017 | 67 | 220 | 2.0 | 9.0 | 0.01 | 3.64 | 3.62 | 99 | 1013.8 |